User: anonymous   Login
Location: Beekmeers
(50.8953°N, 3.6968°E)
Time: 15:35:29
(UTC+00:00)
Language:

Cosmos 1190 Rocket - Orbit

View from above orbital plane
View from above orbital plane
View from above satellite
View from above satellite

Ground track
Ground track

The orbit data is extracted from the following two-line orbital elements,

1 11870U 80056B   24202.54728288  .00000699  00000-0  24071-3 0  9991
2 11870  74.0534 128.9871 0015943 161.7190 198.4541 14.37717542306917
Epoch (UTC): 20 July 2024 13:08:05
Eccentricity: 0.0015943
inclination: 74.0534°
perigee height: 754 km
apogee height: 777 km
right ascension of ascending node: 128.9871°
argument of perigee: 161.7190°
revolutions per day: 14.37717542
mean anomaly at epoch: 198.4541°
orbit number at epoch: 30691

The dashed part of the orbit path shows where the satellite is in the earth's shadow,  

DLR